• In Austria
  • List of Countries
  • For 7 days
  • Water Temperature
  • Satellite Maps
  • Weather Map
  • News
  • Weather Widgets
  • user-avatar
    Login

    Hourly Weather Kenmare

    Today, 18 November, Saturday

    Time Temperature Precipitation Wind Pressure Humidity
    00:00 +8°C° 0.1 mm 5 mps 760 mmHg 97%
    01:00 +9°C° 0.1 mm 5 mps 760 mmHg 96%
    02:00 +9°C° 0.1 mm 5 mps 760 mmHg 96%
    03:00 +9°C° 0 mm 5 mps 760 mmHg 96%
    04:00 +9°C° 0 mm 5 mps 759 mmHg 96%
    05:00 +9°C° 0 mm 5 mps 759 mmHg 96%
    06:00 +9°C° 0 mm 5 mps 759 mmHg 97%
    07:00 +9°C° 0 mm 5 mps 759 mmHg 97%
    08:00 +10°C° 0 mm 5 mps 759 mmHg 97%
    09:00 +10°C° 0.1 mm 5 mps 759 mmHg 95%
    10:00 +12°C° 0.1 mm 5 mps 759 mmHg 94%
    11:00 +12°C° 0.1 mm 5 mps 759 mmHg 92%
    12:00 +12°C° 0.1 mm 5 mps 759 mmHg 93%
    13:00 +12°C° 0.1 mm 5 mps 759 mmHg 93%
    14:00 +12°C° 0.1 mm 4 mps 759 mmHg 93%
    15:00 +12°C° 0 mm 4 mps 759 mmHg 94%
    16:00 +11°C° 0 mm 4 mps 759 mmHg 96%
    17:00 +11°C° 0 mm 3 mps 759 mmHg 97%
    18:00 +11°C° 0 mm 3 mps 759 mmHg 97%
    19:00 +10°C° 0 mm 3 mps 759 mmHg 97%
    20:00 +10°C° 0 mm 3 mps 759 mmHg 97%
    21:00 +10°C° 0 mm 3 mps 759 mmHg 97%
    22:00 +10°C° 0 mm 3 mps 759 mmHg 97%
    23:00 +9°C° 0 mm 3 mps 759 mmHg 97%

    Tomorrow, 19 November, Sunday

    Time Temperature Precipitation Wind Pressure Humidity
    00:00 +10°C° 0 mm 3 mps 759 mmHg 97%
    01:00 +10°C° 0 mm 3 mps 759 mmHg 97%
    02:00 +10°C° 0 mm 3 mps 758 mmHg 97%
    03:00 +10°C° 0 mm 3 mps 758 mmHg 96%
    04:00 +10°C° 0 mm 3 mps 758 mmHg 96%
    05:00 +9°C° 0 mm 3 mps 758 mmHg 96%
    06:00 +9°C° 0 mm 3 mps 758 mmHg 95%
    07:00 +8°C° 0 mm 4 mps 758 mmHg 95%
    08:00 +8°C° 0 mm 4 mps 758 mmHg 94%
    09:00 +9°C° 0 mm 5 mps 758 mmHg 92%
    10:00 +10°C° 0 mm 6 mps 757 mmHg 89%
    11:00 +11°C° 0 mm 6 mps 757 mmHg 86%
    12:00 +11°C° 0 mm 7 mps 757 mmHg 86%
    13:00 +10°C° 0 mm 7 mps 756 mmHg 86%
    14:00 +10°C° 0 mm 8 mps 755 mmHg 86%
    15:00 +10°C° 0.4 mm 8 mps 755 mmHg 88%
    16:00 +10°C° 0.4 mm 7 mps 755 mmHg 90%
    17:00 +10°C° 0.4 mm 7 mps 755 mmHg 92%
    18:00 +10°C° 0.2 mm 7 mps 754 mmHg 93%
    19:00 +10°C° 0.2 mm 7 mps 754 mmHg 94%
    20:00 +10°C° 0.2 mm 7 mps 754 mmHg 94%
    21:00 +10°C° 0.1 mm 7 mps 754 mmHg 95%
    22:00 +11°C° 0.1 mm 7 mps 754 mmHg 95%
    23:00 +11°C° 0.1 mm 7 mps 753 mmHg 96%

    Day after tomorrow, 20 November, Monday

    Time Temperature Precipitation Wind Pressure Humidity
    00:00 +11°C° 0.1 mm 7 mps 753 mmHg 96%
    01:00 +11°C° 0.1 mm 7 mps 753 mmHg 96%
    02:00 +11°C° 0.1 mm 7 mps 753 mmHg 95%
    03:00 +11°C° 0.1 mm 7 mps 752 mmHg 96%
    04:00 +12°C° 0.1 mm 7 mps 752 mmHg 96%
    05:00 +12°C° 0.1 mm 7 mps 752 mmHg 96%
    06:00 +12°C° 0.3 mm 7 mps 752 mmHg 96%
    07:00 +12°C° 0.3 mm 7 mps 752 mmHg 96%
    08:00 +12°C° 0.3 mm 7 mps 752 mmHg 96%
    09:00 +12°C° 0.1 mm 7 mps 752 mmHg 95%
    10:00 +13°C° 0.1 mm 6 mps 752 mmHg 95%
    11:00 +13°C° 0.1 mm 6 mps 752 mmHg 94%
    12:00 +13°C° 0 mm 6 mps 752 mmHg 93%
    13:00 +13°C° 0 mm 5 mps 751 mmHg 93%
    14:00 +13°C° 0 mm 5 mps 751 mmHg 93%
    15:00 +12°C° 0 mm 4 mps 751 mmHg 94%
    16:00 +11°C° 0 mm 4 mps 751 mmHg 94%
    17:00 +11°C° 0 mm 4 mps 750 mmHg 95%
    18:00 +11°C° 0 mm 4 mps 750 mmHg 95%
    19:00 +10°C° 0 mm 4 mps 750 mmHg 95%
    20:00 +10°C° 0 mm 4 mps 750 mmHg 95%
    21:00 +10°C° 0 mm 4 mps 750 mmHg 95%
    22:00 +9°C° 0 mm 5 mps 750 mmHg 96%
    23:00 +9°C° 0 mm 5 mps 749 mmHg 96%

    21 November, Tuesday

    Time Temperature Precipitation Wind Pressure Humidity
    00:00 +10°C° 0 mm 5 mps 749 mmHg 96%
    01:00 +10°C° 0 mm 6 mps 748 mmHg 96%
    02:00 +11°C° 0 mm 6 mps 748 mmHg 96%
    03:00 +11°C° 0.1 mm 6 mps 747 mmHg 95%
    04:00 +11°C° 0.1 mm 6 mps 747 mmHg 95%
    05:00 +12°C° 0.1 mm 7 mps 747 mmHg 95%
    06:00 +12°C° 0.3 mm 7 mps 746 mmHg 95%
    07:00 +12°C° 0.3 mm 8 mps 746 mmHg 95%
    08:00 +12°C° 0.3 mm 8 mps 746 mmHg 95%
    09:00 +12°C° 0.1 mm 8 mps 746 mmHg 94%
    10:00 +12°C° 0.1 mm 7 mps 746 mmHg 94%
    11:00 +12°C° 0.1 mm 7 mps 746 mmHg 94%
    12:00 +12°C° 0.9 mm 7 mps 745 mmHg 94%
    13:00 +12°C° 0.9 mm 8 mps 745 mmHg 95%
    14:00 +12°C° 0.9 mm 8 mps 744 mmHg 95%
    15:00 +12°C° 0.5 mm 8 mps 744 mmHg 94%
    16:00 +12°C° 0.5 mm 9 mps 743 mmHg 94%
    17:00 +12°C° 0.5 mm 9 mps 743 mmHg 93%
    18:00 +12°C° 0.2 mm 9 mps 743 mmHg 92%
    19:00 +12°C° 0.2 mm 9 mps 742 mmHg 91%
    20:00 +12°C° 0.2 mm 9 mps 742 mmHg 90%
    21:00 +12°C° 0 mm 9 mps 741 mmHg 91%
    22:00 +12°C° 0 mm 9 mps 741 mmHg 91%
    23:00 +12°C° 0 mm 10 mps 740 mmHg 92%

    22 November, Wednesday

    Time Temperature Precipitation Wind Pressure Humidity
    00:00 +12°C° 0.1 mm 10 mps 740 mmHg 92%
    01:00 +12°C° 0.1 mm 10 mps 739 mmHg 92%
    02:00 +12°C° 0.1 mm 10 mps 738 mmHg 92%
    03:00 +12°C° 0.1 mm 10 mps 738 mmHg 92%
    04:00 +12°C° 0.1 mm 10 mps 737 mmHg 92%
    05:00 +12°C° 0.1 mm 9 mps 737 mmHg 93%
    06:00 +12°C° 0.5 mm 10 mps 736 mmHg 93%
    07:00 +13°C° 0.5 mm 10 mps 736 mmHg 93%
    08:00 +13°C° 0.5 mm 11 mps 735 mmHg 92%
    09:00 +13°C° 0.2 mm 12 mps 735 mmHg 90%
    10:00 +13°C° 0.2 mm 12 mps 734 mmHg 87%
    11:00 +14°C° 0.2 mm 13 mps 733 mmHg 84%
    12:00 +13°C° 0.4 mm 13 mps 732 mmHg 83%
    13:00 +13°C° 0.4 mm 13 mps 731 mmHg 83%
    14:00 +13°C° 0.4 mm 13 mps 730 mmHg 82%
    15:00 +12°C° 1.1 mm 13 mps 729 mmHg 84%
    16:00 +12°C° 1.1 mm 13 mps 728 mmHg 85%
    17:00 +12°C° 1.1 mm 13 mps 727 mmHg 87%
    18:00 +12°C° 0.4 mm 12 mps 727 mmHg 88%
    19:00 +11°C° 0.4 mm 10 mps 727 mmHg 89%
    20:00 +11°C° 0.4 mm 8 mps 727 mmHg 91%
    21:00 +10°C° 0.3 mm 7 mps 728 mmHg 91%
    22:00 +10°C° 0.3 mm 6 mps 728 mmHg 91%
    23:00 +10°C° 0.3 mm 5 mps 729 mmHg 92%

    23 November, Thursday

    Time Temperature Precipitation Wind Pressure Humidity
    00:00 +10°C° 0.3 mm 4 mps 729 mmHg 92%
    01:00 +10°C° 0.3 mm 3 mps 730 mmHg 92%
    02:00 +9°C° 0.3 mm 2 mps 730 mmHg 93%
    03:00 +9°C° 0 mm 2 mps 730 mmHg 93%
    04:00 +9°C° 0 mm 1 mps 731 mmHg 94%
    05:00 +9°C° 0 mm 1 mps 731 mmHg 94%
    06:00 +8°C° 0 mm 2 mps 732 mmHg 95%
    07:00 +8°C° 0 mm 2 mps 732 mmHg 95%
    08:00 +8°C° 0 mm 3 mps 733 mmHg 96%
    09:00 +9°C° 0.1 mm 3 mps 733 mmHg 94%
    10:00 +10°C° 0.1 mm 4 mps 734 mmHg 92%
    11:00 +11°C° 0.1 mm 4 mps 734 mmHg 90%
    12:00 +10°C° 0.9 mm 5 mps 734 mmHg 92%
    13:00 +10°C° 0.9 mm 5 mps 733 mmHg 94%
    14:00 +10°C° 0.9 mm 5 mps 733 mmHg 96%
    15:00 +10°C° 0.1 mm 7 mps 733 mmHg 93%
    16:00 +10°C° 0.1 mm 8 mps 733 mmHg 90%
    17:00 +9°C° 0.1 mm 10 mps 733 mmHg 87%
    18:00 +10°C° 0 mm 9 mps 734 mmHg 87%
    19:00 +10°C° 0 mm 9 mps 734 mmHg 87%
    20:00 +10°C° 0 mm 9 mps 735 mmHg 87%
    21:00 +10°C° 1.5 mm 8 mps 734 mmHg 90%
    22:00 +9°C° 1.5 mm 6 mps 734 mmHg 93%
    23:00 +9°C° 1.5 mm 5 mps 734 mmHg 95%
    Show more